Weather History for KFFO - August, 2013

Change the Weather History Date:

Thursday, August 29, 2013

  Actual Average Record
Temperature  
Mean Temperature 75 °F -  
Max Temperature 83 °F 80 °F 93 °F (2007)
Min Temperature 68 °F 58 °F 55 °F (1997)
Cooling Degree Days 10    
Growing Degree Days 25 (Base 50)    
Moisture  
Dew Point 69 °F    
Average Humidity 86    
Maximum Humidity 100    
Minimum Humidity 64    
Precipitation  
Precipitation 0.00 in - - ()
Sea Level Pressure  
Sea Level Pressure 30.03 in    
Wind  
Wind Speed 4 mph (North)    
Max Wind Speed 9 mph    
Max Gust Speed -    
Visibility 8 miles    
Events      
Averages and records for this station are not official NWS values.
T = Trace of Precipitation, MM = Missing Value Source: NWS Daily Summary

Daily Weather History Graph

Daily Weather History Graph

Search for Another Location

Airport or City:

Trip Planner

Search our weather history database for the weather conditions in past years. The results will help you decide how hot, cold, wet, or windy it might be!

Date:

Astronomy

Aug. 29, 2013 Rise Set
Actual Time 7:01 AM EDT 8:11 PM EDT
Civil Twilight 6:33 AM EDT 8:39 PM EDT
Nautical Twilight 6:00 AM EDT 9:12 PM EDT
Astronomical Twilight 5:25 AM EDT 9:47 PM EDT
Moon 12:52 AM EDT (8/29) 3:39 PM EDT (8/29)
Length of Visible Light 14h 05m
Length of Day
13h 10m
Last Quarter, 38% of the Moon is Illuminated
Aug 29
Last Quarter
Sep 5
New
Sep 12
First Quarter
Sep 19
Full
Sep 26
Last Quarter

Hourly Weather History & Observations

Time (EDT) Temp. Heat Index Dew Point Humidity Pressure Visibility Wind Dir Wind Speed Gust Speed Precip Events Conditions
12:28 AM 73.4 °F - 71.6 °F 94% 29.99 in 9.0 mi North 2.3 mph - N/A   Clear
12:38 AM 73.4 °F - 71.6 °F 94% 30.00 in 10.0 mi North 2.3 mph - N/A   Clear
12:58 AM 74.3 °F - 71.2 °F 90% 29.99 in 10.0 mi North 4.6 mph - N/A   Clear
1:58 AM 72.9 °F - 70.3 °F 92% 29.99 in 10.0 mi NNW 3.5 mph - N/A   Clear
2:28 AM 71.6 °F - 69.8 °F 94% 30.00 in 9.0 mi NNW 2.3 mph - N/A   Partly Cloudy
2:58 AM 72.5 °F - 70.5 °F 93% 29.99 in 10.0 mi North 4.6 mph - N/A   Partly Cloudy
3:58 AM 71.4 °F - 69.8 °F 95% 29.99 in 10.0 mi North 3.5 mph - N/A   Clear
4:58 AM 70.0 °F - 68.5 °F 95% 30.00 in 10.0 mi NNW 1.2 mph - N/A   Clear
5:28 AM 68.0 °F - 68.0 °F 100% 30.01 in 9.0 mi NNE 3.5 mph - N/A   Mostly Cloudy
5:38 AM 69.8 °F - 69.8 °F 100% 30.01 in 9.0 mi North 3.5 mph - N/A   Mostly Cloudy
5:48 AM 71.6 °F - 69.8 °F 94% 30.01 in 9.0 mi North 3.5 mph - N/A   Scattered Clouds
5:58 AM 70.5 °F - 69.1 °F 95% 30.00 in 3.0 mi North 2.3 mph - N/A   Scattered Clouds
6:18 AM 69.8 °F - 68.0 °F 94% 30.01 in 3.0 mi North 2.3 mph - N/A   Scattered Clouds
6:58 AM 70.0 °F - 68.7 °F 96% 30.01 in 3.0 mi North 2.3 mph - N/A   Scattered Clouds
7:08 AM 69.8 °F - 68.0 °F 94% 30.03 in 3.0 mi North 3.5 mph - N/A   Mostly Cloudy
7:18 AM 69.8 °F - 69.8 °F 100% 30.04 in 6.0 mi NNW 5.8 mph - N/A   Overcast
7:38 AM 69.8 °F - 69.8 °F 100% 30.04 in 1.5 mi North 5.8 mph - N/A   Mostly Cloudy
7:58 AM 70.7 °F - 69.8 °F 97% 30.03 in 2.0 mi North 8.1 mph - N/A   Overcast
8:48 AM 71.6 °F - 69.8 °F 94% 30.06 in 3.0 mi NNE 6.9 mph - N/A   Overcast
8:58 AM 71.1 °F - 69.3 °F 94% 30.05 in 3.0 mi NNE 8.1 mph - N/A   Overcast
9:08 AM 71.6 °F - 69.8 °F 94% 30.06 in 3.0 mi North 8.1 mph - N/A   Overcast
9:28 AM 71.6 °F - 69.8 °F 94% 30.06 in 3.0 mi Variable 5.8 mph - N/A   Overcast
9:58 AM 72.1 °F - 69.3 °F 91% 30.06 in 5.0 mi North 8.1 mph - N/A   Overcast
10:28 AM 73.4 °F - 69.8 °F 88% 30.06 in 5.0 mi North 6.9 mph - N/A   Overcast
10:58 AM 73.4 °F - 68.0 °F 83% 30.07 in 5.0 mi North 9.2 mph - N/A   Overcast
11:20 AM 73.4 °F - 68.0 °F 83% 30.07 in 7.0 mi NNE 4.6 mph - N/A   Overcast
11:58 AM 74.5 °F - 68.4 °F 81% 30.07 in 7.0 mi Variable 1.2 mph - N/A   Overcast
12:28 PM 75.2 °F - 68.0 °F 78% 30.08 in 10.0 mi Variable 3.5 mph - N/A   Overcast
12:34 PM 77.0 °F - 69.8 °F 78% 30.07 in 10.0 mi Variable 3.5 mph - N/A   Overcast
12:58 PM 76.8 °F - 68.7 °F 76% 30.07 in 10.0 mi NE 5.8 mph - N/A   Overcast
1:58 PM 77.4 °F - 69.4 °F 76% 30.06 in 10.0 mi NNE 5.8 mph - N/A   Overcast
2:18 PM 78.8 °F - 69.8 °F 74% 30.06 in 10.0 mi Variable 1.2 mph - N/A   Mostly Cloudy
2:58 PM 79.5 °F - 68.9 °F 70% 30.05 in 10.0 mi NNE 5.8 mph - N/A   Mostly Cloudy
3:28 PM 78.8 °F - 69.8 °F 74% 30.05 in 10.0 mi NNE 5.8 mph - N/A   Mostly Cloudy
3:48 PM 80.6 °F 83.9 °F 69.8 °F 70% 30.04 in 10.0 mi Variable 4.6 mph - N/A   Partly Cloudy
3:58 PM 81.7 °F 85.2 °F 69.8 °F 67% 30.03 in 10.0 mi Variable 3.5 mph - N/A   Partly Cloudy
4:58 PM 81.5 °F 84.9 °F 69.8 °F 67% 30.03 in 10.0 mi Calm Calm - N/A   Partly Cloudy
5:58 PM 82.0 °F 85.5 °F 69.3 °F 65% 30.02 in 10.0 mi NE 5.8 mph - N/A   Scattered Clouds
6:58 PM 82.4 °F 85.8 °F 69.1 °F 64% 30.01 in 10.0 mi NNW 2.3 mph - N/A   Scattered Clouds
7:58 PM 80.6 °F 83.5 °F 68.7 °F 67% 30.01 in 10.0 mi NNE 2.3 mph - N/A   Clear
8:58 PM 77.0 °F - 70.2 °F 79% 30.02 in 10.0 mi Calm Calm - N/A   Partly Cloudy
9:58 PM 72.7 °F - 68.9 °F 88% 30.04 in 10.0 mi Calm Calm - N/A   Clear
10:58 PM 72.0 °F - 68.7 °F 89% 30.04 in 10.0 mi Calm Calm - N/A   Clear
11:58 PM 69.3 °F - 67.5 °F 94% 30.03 in 10.0 mi Calm Calm - N/A   Clear